Hourly Data Report for May 17, 2021

WIARTON A
ONTARIO
Current Station Operator: NAVCAN

44°44'39.000" N
81°06'31.000" W
221.90 m
6119499
71633
YVV

Download Data

Hourly Data (May 2021)
Hourly Data Report for May 17, 2021
TIME
LST
Temp Definition
°C
Dew Point Definition
°C
Rel Hum Definition
%
Precip. Amount Definition
mm

Wind Dir Definition
10's deg

Wind Spd Definition
km/h
Visibility Definition
km
Stn Press Definition
kPa
Hmdx Definition


Wind Chill Definition


Weather Definition


00:00 7.9 5.7 86   12 12 24.1 99.68     LegendNANA
01:00 7.6 5.5 87   14 10 24.1 99.69     Clear
02:00 9.4 6.0 80   14 12 24.1 99.68     LegendNANA
03:00 7.7 5.6 86   14 10 24.1 99.67     LegendNANA
04:00 7.0 5.4 89   14 11 24.1 99.70     Clear
05:00 7.9 5.5 84   15 11 24.1 99.70     LegendNANA
06:00 10.1 6.9 80   15 7 24.1 99.75     LegendNANA
07:00 14.4 7.4 63   18 8 24.1 99.78     Mainly Clear
08:00 16.5 7.2 54   20 9 24.1 99.80     LegendNANA
09:00 18.0 6.5 46   23 11 24.1 99.82     LegendNANA
10:00 19.3 7.6 46   27 11 24.1 99.81     Mainly Clear
11:00 19.7 6.5 42   29 16 24.1 99.81     LegendNANA
12:00 19.9 7.3 44   26 17 24.1 99.82     LegendNANA
13:00 20.4 6.6 40   27 13 24.1 99.78     Clear
14:00 20.4 5.8 38   29 14 24.1 99.76     LegendNANA
15:00 20.4 5.8 38   28 17 24.1 99.72     LegendNANA
16:00 20.8 6.4 39   28 13 24.1 99.72     Clear
17:00 21.2 6.8 39   23 10 24.1 99.69     LegendNANA
18:00 20.9 6.4 38   22 13 24.1 99.68     LegendNANA
19:00 19.8 6.0 40   23 9 24.1 99.67     Mainly Clear
20:00 13.2 9.2 76   35 3 24.1 99.71     LegendNANA
21:00 12.2 8.3 77   12 5 24.1 99.76     LegendNANA
22:00 11.4 8.4 82   12 8 24.1 99.77     Mainly Clear
23:00 10.3 8.4 88   12 9 24.1 99.76     LegendNANA

Notes on Data Quality.

Legend

  • E = Estimated
  • M = Missing
  • NA = Not Available*
  • [empty] = Indicates an unobserved value
Date modified: